Weather History for Sylvania, GA

Change the Weather History Date:

Wednesday, July 31, 2013

  Actual Average (KSAV) Record (KSAV)
Temperature  
Mean Temperature 80 °F 83 °F  
Max Temperature 86 °F 92 °F 101 °F (1990)
Min Temperature 73 °F 73 °F 64 °F (1997)
Degree Days  
Heating Degree Days 0 0  
Month to date heating degree days 0  
Since 1 June heating degree days 0  
Since 1 July heating degree days 0  
Cooling Degree Days 14 18  
Month to date cooling degree days 546  
Year to date cooling degree days 1395  
Since 1 June cooling degree days 992  
Growing Degree Days 30 (Base 50)    
Moisture  
Dew Point 73 °F    
Average Humidity 83    
Maximum Humidity 90    
Minimum Humidity 65    
Precipitation  
Precipitation 0.00 in 0.21 in 3.74 in (1918)
Month to date precipitation 5.60  
Year to date precipitation 27.81  
Sea Level Pressure  
Sea Level Pressure 30.09 in    
Wind  
Wind Speed 1 mph (SSW)    
Max Wind Speed 8 mph    
Max Gust Speed -    
Visibility 9 miles    
Events Rain , Thunderstorm    
T = Trace of Precipitation, MM = Missing Value Source: NWS Daily Summary

Daily Weather History Graph

Daily Weather History Graph

Search for Another Location

Airport:

Trip Planner

Search our weather history database for the weather conditions in past years. The results will help you decide how hot, cold, wet, or windy it might be!

Date:

Astronomy

Jul. 31, 2013 Rise Set
Actual Time 6:39 AM EDT 8:25 PM EDT
Civil Twilight 6:13 AM EDT 8:51 PM EDT
Nautical Twilight 5:40 AM EDT 9:24 PM EDT
Astronomical Twilight 5:06 AM EDT 9:58 PM EDT
Moon 1:34 AM EDT 3:39 PM EDT
Length of Visible Light 14h 38m
Length of Day
13h 45m
Waning Crescent, 32% of the Moon is Illuminated
Jul 31
Waning Crescent
Aug 6
New
Aug 14
First Quarter
Aug 20
Full
Aug 28
Last Quarter

Hourly Weather History & Observations

Time (EDT) Temp. Heat Index Dew Point Humidity Pressure Visibility Wind Dir Wind Speed Gust Speed Precip Events Conditions
12:15 AM 78.8 °F - 71.6 °F 78% 30.15 in 10.0 mi SW 3.5 mph - N/A   Clear
12:35 AM 78.6 °F - 71.1 °F 78% 30.14 in 10.0 mi Calm Calm - N/A   Clear
12:55 AM 77.5 °F - 72.0 °F 83% 30.14 in 10.0 mi Calm Calm - N/A   Clear
1:15 AM 76.3 °F - 71.8 °F 86% 30.14 in 10.0 mi Calm Calm - N/A   Clear
1:35 AM 76.1 °F - 71.6 °F 86% 30.14 in 10.0 mi Calm Calm - N/A   Clear
1:55 AM 76.3 °F - 71.8 °F 86% 30.13 in 10.0 mi Calm Calm - N/A   Clear
2:15 AM 76.6 °F - 72.3 °F 86% 30.13 in 10.0 mi Calm Calm - N/A   Clear
2:35 AM 75.4 °F - 71.6 °F 88% 30.12 in 7.0 mi Calm Calm - N/A   Clear
3:15 AM 74.7 °F - 71.2 °F 89% 30.11 in 7.0 mi Calm Calm - N/A   Clear
3:35 AM 74.3 °F - 71.1 °F 90% 30.12 in 7.0 mi Calm Calm - N/A   Clear
3:55 AM 74.3 °F - 70.9 °F 89% 30.11 in 7.0 mi Calm Calm - N/A   Clear
4:15 AM 74.3 °F - 71.1 °F 90% 30.11 in 7.0 mi Calm Calm - N/A   Clear
4:35 AM 74.3 °F - 71.1 °F 90% 30.11 in 7.0 mi Calm Calm - N/A   Clear
4:55 AM 73.9 °F - 70.9 °F 90% 30.11 in 7.0 mi Calm Calm - N/A   Clear
5:15 AM 73.9 °F - 70.9 °F 90% 30.10 in 7.0 mi Calm Calm - N/A   Clear
5:35 AM 74.3 °F - 71.2 °F 90% 30.11 in 7.0 mi Calm Calm - N/A   Clear
5:55 AM 73.9 °F - 70.9 °F 90% 30.11 in 7.0 mi Calm Calm - N/A   Clear
6:15 AM 74.3 °F - 71.1 °F 90% 30.12 in 7.0 mi Calm Calm - N/A   Clear
6:35 AM 74.3 °F - 71.1 °F 90% 30.12 in 5.0 mi Calm Calm - N/A   Clear
6:55 AM 74.3 °F - 71.1 °F 90% 30.13 in 7.0 mi Calm Calm - N/A   Clear
7:15 AM 74.3 °F - 71.1 °F 90% 30.13 in 5.0 mi Calm Calm - N/A   Clear
7:35 AM 74.3 °F - 71.2 °F 90% 30.13 in 4.0 mi Calm Calm - N/A   Clear
7:55 AM 74.8 °F - 71.8 °F 90% 30.14 in 5.0 mi Calm Calm - N/A   Clear
8:15 AM 75.2 °F - 72.0 °F 90% 30.13 in 5.0 mi Calm Calm - N/A   Clear
8:35 AM 75.7 °F - 72.5 °F 90% 30.14 in 5.0 mi Calm Calm - N/A   Clear
8:55 AM 76.3 °F - 72.9 °F 89% 30.14 in 5.0 mi Calm Calm - N/A   Clear
9:15 AM 77.0 °F - 73.2 °F 88% 30.14 in 7.0 mi Calm Calm - N/A   Clear
9:35 AM 77.7 °F - 73.6 °F 87% 30.14 in 7.0 mi Calm Calm - N/A   Clear
9:55 AM 78.8 °F - 73.8 °F 84% 30.14 in 10.0 mi Calm Calm - N/A   Clear
10:15 AM 79.7 °F - 73.4 °F 81% 30.14 in 10.0 mi Calm Calm - N/A   Clear
10:35 AM 81.5 °F 87.2 °F 73.9 °F 78% 30.14 in 10.0 mi Calm Calm - N/A   Clear
10:55 AM 82.4 °F 88.4 °F 73.9 °F 75% 30.14 in 10.0 mi Calm Calm - N/A   Clear
11:15 AM 82.4 °F 88.2 °F 73.2 °F 74% 30.14 in 10.0 mi Calm Calm - N/A   Clear
11:35 AM 83.8 °F 91.1 °F 74.3 °F 73% 30.13 in 10.0 mi Calm Calm - N/A   Clear
11:55 AM 84.6 °F 91.4 °F 73.2 °F 69% 30.13 in 10.0 mi Calm Calm - N/A   Scattered Clouds
12:15 PM 85.3 °F 91.5 °F 72.3 °F 65% 30.12 in 10.0 mi Calm Calm - N/A   Scattered Clouds
12:35 PM 85.1 °F 91.8 °F 73.2 °F 67% 30.11 in 10.0 mi South 3.5 mph - N/A   Scattered Clouds
12:55 PM 84.7 °F 91.4 °F 73.0 °F 68% 30.11 in 10.0 mi Calm Calm - N/A   Scattered Clouds
1:15 PM 84.6 °F 91.4 °F 73.4 °F 69% 30.11 in 10.0 mi South 3.5 mph - N/A   Scattered Clouds
1:35 PM 84.6 °F 90.7 °F 72.5 °F 67% 30.11 in 10.0 mi Calm Calm - N/A   Scattered Clouds
1:55 PM 85.1 °F 92.6 °F 73.8 °F 69% 30.10 in 10.0 mi Calm Calm - N/A   Scattered Clouds
2:15 PM 85.1 °F 92.6 °F 73.8 °F 69% 30.09 in 10.0 mi Calm Calm - N/A   Scattered Clouds
2:35 PM 85.1 °F 91.8 °F 73.0 °F 67% 30.07 in 10.0 mi Calm Calm - N/A   Scattered Clouds
2:55 PM 85.1 °F 91.8 °F 72.9 °F 67% 30.06 in 10.0 mi Calm Calm - N/A   Clear
3:15 PM 86.2 °F 93.8 °F 73.4 °F 66% 30.05 in 10.0 mi Calm Calm - N/A Thunderstorm Clear
3:35 PM 86.0 °F 93.0 °F 73.0 °F 65% 30.04 in 10.0 mi NNW 4.6 mph - N/A Thunderstorm Clear
3:55 PM 85.1 °F 92.6 °F 73.9 °F 69% 30.05 in 10.0 mi WNW 6.9 mph - N/A Thunderstorm Scattered Clouds
4:15 PM 82.2 °F 89.3 °F 75.6 °F 80% 30.05 in 5.0 mi Calm Calm - N/A Rain , Thunderstorm Thunderstorms and Rain
4:35 PM 79.3 °F - 74.3 °F 84% 30.06 in 7.0 mi South 4.6 mph - N/A Rain , Thunderstorm Light Thunderstorms and Rain
4:55 PM 78.4 °F - 74.5 °F 88% 30.05 in 7.0 mi Calm Calm - N/A Rain Light Rain
5:15 PM 79.0 °F - 75.4 °F 89% 30.04 in 7.0 mi Calm Calm - N/A   Scattered Clouds
5:35 PM 80.4 °F 86.6 °F 76.8 °F 89% 30.04 in 7.0 mi Calm Calm - N/A   Mostly Cloudy
5:55 PM 79.7 °F - 75.9 °F 88% 30.05 in 7.0 mi South 5.8 mph - N/A Rain Rain
6:15 PM 77.7 °F - 73.8 °F 88% 30.05 in 10.0 mi South 4.6 mph - N/A   Overcast
6:35 PM 77.5 °F - 73.4 °F 87% 30.05 in 10.0 mi South 8.1 mph - N/A Thunderstorm Overcast
6:55 PM 77.0 °F - 72.5 °F 86% 30.04 in 10.0 mi South 5.8 mph - N/A Thunderstorm Overcast
7:15 PM 77.2 °F - 72.5 °F 85% 30.04 in 10.0 mi SSW 3.5 mph - N/A Thunderstorm Thunderstorm
7:35 PM 77.0 °F - 72.7 °F 86% 30.04 in 10.0 mi South 4.6 mph - N/A   Mostly Cloudy
7:55 PM 77.0 °F - 72.7 °F 86% 30.05 in 10.0 mi SSW 3.5 mph - N/A   Light Drizzle
8:15 PM 76.6 °F - 72.5 °F 87% 30.05 in 10.0 mi SSW 4.6 mph - N/A   Overcast
8:35 PM 76.3 °F - 72.5 °F 88% 30.04 in 10.0 mi South 3.5 mph - N/A Rain Light Rain
8:55 PM 76.3 °F - 72.5 °F 88% 30.04 in 10.0 mi Calm Calm - N/A   Overcast
9:15 PM 76.1 °F - 72.5 °F 89% 30.05 in 10.0 mi Calm Calm - N/A   Mostly Cloudy
9:35 PM 76.1 °F - 72.5 °F 89% 30.05 in 10.0 mi Calm Calm - N/A   Overcast
9:55 PM 75.7 °F - 72.3 °F 89% 30.06 in 10.0 mi Calm Calm - N/A   Overcast
10:15 PM 75.7 °F - 72.1 °F 89% 30.06 in 10.0 mi Calm Calm - N/A   Overcast
10:35 PM 75.7 °F - 72.3 °F 89% 30.06 in 10.0 mi Calm Calm - N/A   Overcast
10:55 PM 75.6 °F - 72.1 °F 89% 30.06 in 10.0 mi Calm Calm - N/A   Overcast
11:15 PM 75.6 °F - 72.0 °F 89% 30.05 in 10.0 mi Calm Calm - N/A   Overcast
11:35 PM 75.6 °F - 72.0 °F 89% 30.04 in 10.0 mi South 3.5 mph - N/A   Overcast
11:55 PM 75.6 °F - 72.1 °F 89% 30.04 in 10.0 mi Calm Calm - N/A   Overcast